Location: Ar Ranvel
(48.3000°N, 4.8833°W)
Time: 05:30:51
(UTC+00:00)

Meteor 2-10 Rocket - Visible Passes

Search period start: 26 October 2021 00:00
Search period end: 05 November 2021 00:00
Orbit: 733 x 885 km, 81.2° (Epoch: 25 October)

Date Brightness Start Highest point End Pass type
(mag) Time Alt. Az. Time Alt. Az. Time Alt. Az.
26 Oct 6.6 03:38:40 10° NE 03:39:23 10° NE 03:40:05 10° ENE visible
26 Oct 3.8 05:17:30 10° N 05:22:33 66° ENE 05:27:31 10° SSE visible
26 Oct 3.6 18:23:26 10° S 18:28:48 57° E 18:33:58 10° NNE visible
26 Oct 5.8 20:06:53 10° WSW 20:11:11 23° WNW 20:15:24 10° NNW visible
27 Oct 4.4 04:53:12 10° N 04:58:06 48° ENE 05:02:55 10° SSE visible
27 Oct 4.0 17:59:24 10° SSE 18:04:30 41° E 18:09:26 10° NNE visible
27 Oct 5.4 19:41:52 10° SW 19:46:39 31° WNW 19:51:18 10° N visible
28 Oct 5.0 04:29:00 10° N 04:33:36 35° ENE 04:38:10 10° SE visible
28 Oct 4.1 06:11:11 10° NNW 06:15:35 31° W 06:19:58 10° SSW visible
28 Oct 4.3 17:35:33 10° SSE 17:40:15 30° E 17:44:48 10° NNE visible
28 Oct 4.9 19:17:03 10° SW 19:22:10 41° WNW 19:27:07 10° N visible
29 Oct 5.5 04:04:52 10° N 04:09:04 26° ENE 04:13:15 10° ESE visible
29 Oct 3.7 05:46:34 10° NNW 05:51:19 43° W 05:56:02 10° SSW visible
29 Oct 4.3 18:52:24 10° SSW 18:57:42 55° WNW 19:02:51 10° N visible
30 Oct 5.9 03:40:51 10° NNE 03:44:30 20° ENE 03:48:07 10° ESE visible
30 Oct 3.4 05:22:03 10° NNW 05:27:00 61° W 05:31:56 10° S visible
30 Oct 3.8 18:27:52 10° SSW 18:33:17 74° WNW 18:38:32 10° N visible
30 Oct 6.5 20:14:06 10° W 20:16:16 12° WNW 20:18:25 10° NNW visible
31 Oct 6.2 03:17:03 10° NNE 03:19:52 15° ENE 03:22:40 10° E visible
31 Oct 3.3 04:57:37 10° NNW 05:02:39 84° W 05:07:41 10° S visible
31 Oct 3.5 18:03:31 10° S 18:08:55 82° E 18:14:08 10° NNE visible
31 Oct 6.3 19:48:19 10° W 19:51:37 16° WNW 19:54:52 10° NNW visible
01 Nov 6.5 02:53:53 10° NE 02:55:11 11° NE 02:56:29 10° ENE visible
01 Nov 3.6 04:33:14 10° N 04:38:15 71° ENE 04:43:17 10° SSE visible
01 Nov 4.9 06:16:45 10° NW 06:19:41 16° W 06:22:36 10° WSW visible
01 Nov 3.6 17:39:18 10° S 17:44:34 60° E 17:49:40 10° NNE visible
01 Nov 5.9 19:22:59 10° WSW 19:27:02 22° WNW 19:30:59 10° NNW visible
02 Nov 4.2 04:08:56 10° N 04:13:50 51° ENE 04:18:44 10° SSE visible
02 Nov 4.5 05:51:44 10° NW 05:55:30 22° W 05:59:16 10° SW visible
02 Nov 5.5 18:57:55 10° SW 19:02:28 28° WNW 19:06:55 10° N visible
03 Nov 4.7 03:48:47 36° NE 03:49:21 37° ENE 03:54:02 10° SE visible
03 Nov 4.1 05:30:11 27° WNW 05:31:17 30° W 05:35:37 10° SSW visible
03 Nov 5.0 18:33:02 10° SW 18:37:58 37° WNW 18:42:45 10° N visible
04 Nov 5.8 03:27:36 17° ESE 03:27:36 17° ESE 03:29:09 10° SE visible
04 Nov 4.4 05:08:53 29° SW 05:08:53 29° SW 05:11:44 10° SSW visible
04 Nov 4.4 18:08:20 10° SSW 18:13:30 51° WNW 18:18:30 10° N visible
